国际通讯卫星 10星 (INTELSAT 10 (IS-10))

导读

INTELSAT 10(又称PAS 10)由美国发射,于2001年5月15日成功入轨,是国际通信卫星组织的一颗地球同步轨道通信卫星。该卫星主要为欧洲、非洲、亚洲及中东地区提供广播、电信、互联网骨干传输等服务,配备多个C、Ku频段转发器,设计寿命超过15年,曾在区域卫星通信市场发挥重要作用,推动了跨洲际媒体分发与企业通信网络的发展。

Basic Information
目录编号:
26766
目录名称:
INTELSAT 10 (PAS 10)
国际标识:
2001-019A
轨道中心:
EARTH
卫星名称:
国际通讯卫星 10星
卫星全名:
国际通讯卫星 10星 (INTELSAT 10 (IS-10))
卫星状态:
在轨 (已飞行9164 天)
发射日期:
2001-05-15 UTC
国别 :
美国 (US)
星等 :
--
Orbit Information
数据来源 国际轨道数据 AOE轨道数据
星历时间 2026-06-17T02:20:23+0800
1天前
查看轨道信息
2026-06-17T08:00:00+0800
20小时前
查看轨道信息
半长轴 42514.05km 42514.021km
偏心率 0.0002611 0.0002705
轨道倾角 9.075° 9.076°
近地点辐角 308.883° 309.601°
升交点赤经 59.241° 59.241°
平近点角 212.253° 295.627°
近地点 36124.812km 36124.383km
远地点 36147.014km 36147.385km
周期 1453.980分钟 1453.979分钟
每日圈数 0.990385 0.990386
Detailed Information
卫星平台:
Eurostar-3000
平衡模式:
三轴稳定
覆盖范围:
全球
运营商:
国际卫星通信公司
运营商所在国:
美国
制造商(研发单位):
阿斯特里姆
制造商所在国:
法国大都会
使用方式:
暂无
Satellite Introduction
从1965年4月至1984年3月,国际通信卫星组织发射了5代、6种不同性能的卫星共计35颗,除6颗卫星因运载火箭和远地点发动机故障而发射失败外,其余29颗卫星均被送到了预定的静止轨道位置。1984年8月前后,国际通信卫星组织利用部署在大西洋、太平洋、印度洋上空的15颗国际通信卫星,为遍布世界各地170多个国家或地区提供电话、电传、电报、电视和数据传输等电信业务;该卫星仍在工作。
2D Orbit Map
3D Orbit Map
Orbit Altitude Analysis Chart
Orbit Inclination Analysis Chart
Orbit Comprehensive Analysis Chart
View Comprehensive Chart